Main page
METAR-TAF:

METAR-TAF

Airports :

Región de Murcia International Airport

Murcia, Corvera, Spain

latitude: 37-48-13N, longitude: 1-07-27W, elevation: 193 m

Current weather observation

The report was made 14 minutes ago, at 19:30 UTC
Wind 6 kt from the East, varying between East/Northeast and Southeast
Temperature 25°C
Humidity 74%
Pressure 1015 hPa
Visibility 10 km or more
no clouds below 1500 m and no cumulonimbus

METAR: LEMI 281930Z 10006KT 070V130 CAVOK 25/20 Q1015

Time: 21:44 (19:44 UTC)


TAF: missing

Weather observations and forecasts of more than 4000 airports (METAR and TAF reports).

The available stations are represented by yellow and red dots on the map.

Hover mouse over dot to see the name of the station.

Then click to see weather observations and forecasts.

To change the map : click on the green buttons with a black cross to zoom in, on the green button with a dash to zoom out, or on the green arrows for adjacent maps.


METAR-TAF: